Current weather by "City, St" or "zip code"  
 

Current Conditions: Hamilton Municipal Airport, NY

Fair


61.0 F

Last Updated on May 21 2022, 5:55 am EDT
Humidity: %
Wind Speed: SE 5.8 mph
Barometer 29.93 in
Dewpoint: F
Visibility: 7.00 mi
Precip: --
Heat Index: NA
Wind Chill: 61 F
Current conditions at:

Hamilton Municipal Airport, NY (KVGC)

Lat: 42.84344 Lon: 75.56119

Local Radar Image active severe weather and emergency alerts image image weather storm and storm spotter reports image weather observation monitoring service image
Local
Radar
Active
Alerts
Storm Reports Obs
Monitoring

Sign-up For Email & Text Message Weather Alert Notification Services



Advertise Here

Observation History for Hamilton Municipal Airport, NY


Time Wind
(mph)
Vis
(mi)
Weather Precip (in) Temperature (F) Relative
Humidity
Wind
Chill
(F)
Heat
Index
(F)
Pressure
Air Dwpt altimeter
(in)
sea level
(mb)
Rmks
5:55 am EDT SE 5.8 7.00 Fair -- 61.0 % 61 NA 29.93 M
5:35 am EDT SE 4.6 7.00 Fair -- 61.0 % 61 NA 29.93 M
5:15 am EDT N 0.0 7.00 Fair -- 61.0 % NA NA 29.92 M
4:55 am EDT E 3.5 7.00 Fair -- 61.0 60.8 100% NA NA 29.91 M
4:35 am EDT SE 5.8 10.00 Fair -- 61.0 60.8 100% 61 NA 29.90 M
4:15 am EDT SE 3.5 10.00 Fair -- 61.0 60.8 100% NA NA 29.90 M
3:55 am EDT SE 5.8 10.00 Fair -- 63.0 60.8 94% 63 NA 29.89 M
3:35 am EDT E 6.9 10.00 Fair -- 63.0 60.8 94% 63 NA 29.89 M
3:15 am EDT SE 8.1 10.00 Fair -- 63.0 60.8 94% 63 NA 29.89 M
2:55 am EDT SE 6.9 10.00 Fair -- 63.0 59.0 88% 63 NA 29.89 M
2:35 am EDT SE 8.1 10.00 Fair -- 63.0 59.0 88% 63 NA 29.90 M
2:15 am EDT SE 6.9 10.00 Fair -- 63.0 59.0 88% 63 NA 29.90 M
1:55 am EDT SE 9.2 10.00 Fair -- 63.0 59.0 88% 62 NA 29.90 M
1:15 am EDT SE 6.9 10.00 Fair -- 63.0 59.0 88% 63 NA 29.90 M
12:55 am EDT SE 6.9 10.00 Fair -- 63.0 59.0 88% 63 NA 29.91 M
12:35 am EDT SE 6.9 10.00 Fair -- 63.0 59.0 88% 63 NA 29.91 M
12:15 am EDT SE 6.9 10.00 Fair -- 63.0 59.0 88% 63 NA 29.91 M
11:55 pm EDT S 6.9 10.00 Fair -- 64.0 59.0 83% NA NA 29.91 M
11:35 pm EDT S 8.1 10.00 Fair -- 64.0 59.0 83% NA NA 29.90 M
10:55 pm EDT S 8.1 10.00 Fair -- 64.0 59.0 83% NA NA 29.90 M
10:15 pm EDT S 10.4 G 17.3 10.00 Fair -- 66.0 59.0 78% NA NA 29.87 M
9:55 pm EDT S 9.2 10.00 Partly Cloudy -- 66.0 59.0 78% NA NA 29.87 M
9:35 pm EDT S 12.7 G 18.4 10.00 Partly Cloudy -- 68.0 59.0 73% NA NA 29.87 M
9:15 pm EDT S 6.9 10.00 Partly Cloudy -- 68.0 59.0 73% NA NA 29.86 M

Regional Weather Observation


Hamilton Municipal Airport, NY (KVGC)

Fair
61.0 F

Syracuse, Syracuse Hancock International Airport, NY (KSYR)

Mostly Cloudy
70.0 F

Skaneateles Aero Drome, NY (K6B9)

Fair
72.0 F

Fulton, Oswego County Airport, NY (KFZY)

Fair
71.0 F

Cortland County-Chase Field, NY (KN03)

Fair
59.0 F

Binghamton, Binghamton Regional Airport, NY (KBGM)

Fair
66.0 F

Advertise Here


Advertise Here